Location: Atlantic Beach
(40.5890°N, 73.7290°W)
Time: 03:23:03
(UTC+00:00)

Cosmos 44 Rocket - Pass Details

Date: 29 October 2020
Orbit: 642 x 748 km, 65.1° (Epoch: 23 November)

Event Time Altitude Azimuth Distance (km) Brightness Sun altitude
Rises 23:06:04 0° 198° (SSW) 2,966 6.9 -14.1°
Reaches altitude 10° 23:08:22 10° 194° (SSW) 2,071 6.0 -14.6°
Maximum altitude 23:12:57 55° 117° (ESE) 815 3.3 -15.4°
Enters shadow 23:16:14 19° 46° (NE) 1,605 4.7 -16.0°
